Home   Weather   Salzburg   Past weeks

Flag for Austria Past Weather in Salzburg, Salzburg, Austria — Yesterday and Last 2 Weeks

Now
64 °F

Passing clouds.


Feels Like: 64 °F
Forecast: 59 / 72 °F
Wind: 6 mph from Southeast

Location: Salzburg-Flughafen

Current Time: Jul 27, 2017 at 11:03:23 am

Latest Report: Jul 27, 2017 at 10:00 am


Visibility: 25 mi

Pressure: 29.89 "Hg

Humidity: 74%

Dew Point: 55 °F

Location of SalzburgLocation

Past Weather in Salzburg — Graph

°F

Salzburg Temperature Yesterday

Maximum temperature yesterday: 58 °F (at 6:00 pm)
Minimum temperature yesterday: 53 °F (at 6:00 am)
Average temperature yesterday: 55 °F

High & Low Weather Summary for the Past Weeks

 TemperatureHumidityPressure
High88 °F (Jul 19, 6:00 pm)96% (Jul 24, 6:00 am)30.29 "Hg (Jul 24, 6:00 am)
Low52 °F (Jul 16, 6:00 am)33% (Jul 19, 4:00 pm)29.70 "Hg (Jul 26, 8:00 am)
Average65 °F72%29.98 "Hg
* Reported Jul 12 9:00 am — Jul 27 9:00 am, Salzburg. Weather by CustomWeather, © 2017

Note: Actual official high and low records may vary slightly from our data, if they occured in-between our weather recording intervals... More about our weather records

Advertising

Salzburg Weather History for the Previous 24 Hours

Scroll right to see more
 ConditionsComfort  
Time TempWeatherWind HumidityBarometerVisibility
9:00 am
Thu, Jul 27
59 °FScattered clouds.5 mph82%29.90 "Hg14 mi
8:00 am57 °FPartly sunny.N/A85%29.92 "Hg28 mi
7:00 am56 °FOvercast.5 mph90%29.91 "Hg22 mi
6:00 am57 °FOvercast.3 mph80%29.90 "Hg28 mi
5:00 am57 °FOvercast.N/A81%29.90 "Hg13 mi
4:00 am56 °FOvercast.7 mph85%29.90 "Hg28 mi
3:00 am56 °FLight rain. Overcast.N/A88%29.91 "Hg6 mi
2:00 am56 °FLight rain. Overcast.N/A88%29.91 "Hg8 mi
1:00 am56 °FHeavy rain. Overcast.N/A87%29.92 "Hg7 mi
12:00 am56 °FHeavy rain. Overcast.N/A85%29.92 "Hg7 mi
11:00 pm
Wed, Jul 26
56 °FLight rain. Overcast.N/A85%29.91 "Hg17 mi
10:00 pm56 °FOvercast.3 mph86%29.90 "Hg28 mi
9:00 pm56 °FRain showers. Overcast.3 mph86%29.88 "Hg22 mi
8:00 pm57 °FRain showers. Overcast.5 mph83%29.87 "Hg10 mi
7:00 pm56 °FOvercast.5 mph84%29.85 "Hg16 mi
6:00 pm58 °FOvercast.6 mph78%29.83 "Hg22 mi
5:00 pm55 °FLight rain. Overcast.7 mph85%29.81 "Hg8 mi
4:00 pm56 °FLight rain. Overcast.7 mph80%29.80 "Hg19 mi
3:00 pm55 °FLight rain. Overcast.8 mph82%29.79 "Hg28 mi
2:00 pm55 °FHeavy rain. Low clouds.7 mph84%29.80 "Hg6 mi
1:00 pm54 °FHeavy rain. Low clouds.8 mph87%29.78 "Hg7 mi
12:00 pm55 °FHeavy rain. Low clouds.5 mph87%29.77 "Hg7 mi
11:00 am55 °FLight rain. Low clouds.6 mph84%29.75 "Hg7 mi
Weather by CustomWeather, © 2017

See weather overviewHow to use our weather pages